Weather History for Plymouth, NH

Change the Weather History Date:

Wednesday, May 21, 2014

  Actual Average (KLCI) Record (KLCI)
Temperature  
Mean Temperature 56 °F -  
Max Temperature 75 °F 72 °F 90 °F (1989)
Min Temperature 38 °F 46 °F 35 °F (2002)
Degree Days  
Heating Degree Days 8    
Growing Degree Days 6 (Base 50)    
Moisture  
Dew Point 43 °F    
Average Humidity 64    
Maximum Humidity 99    
Minimum Humidity 27    
Precipitation  
Precipitation 0.00 in - - ()
Sea Level Pressure  
Sea Level Pressure 29.95 in    
Wind  
Wind Speed 1 mph (ESE)    
Max Wind Speed 8 mph    
Max Gust Speed -    
Visibility 9 miles    
Events      
Averages and records for this station are not official NWS values.
T = Trace of Precipitation, MM = Missing Value Source: NWS Daily Summary

Daily Weather History Graph

Daily Weather History Graph

Search for Another Location

Airport:

Trip Planner

Search our weather history database for the weather conditions in past years. The results will help you decide how hot, cold, wet, or windy it might be!

Date:

Astronomy

May. 21, 2014 Rise Set
Actual Time 5:15 AM EDT 8:12 PM EDT
Civil Twilight 4:41 AM EDT 8:46 PM EDT
Nautical Twilight 3:58 AM EDT 9:29 PM EDT
Astronomical Twilight 3:07 AM EDT 10:20 PM EDT
Moon 1:11 AM EDT (5/21) 12:35 PM EDT (5/21)
Length of Visible Light 16h 04m
Length of Day
14h 56m
Waning Gibbous, 49% of the Moon is Illuminated
May 21
Waning Gibbous
May 28
New
Jun 5
First Quarter
Jun 13
Full
Jun 19
Last Quarter

Hourly Weather History & Observations

Time (EDT) Temp. Dew Point Humidity Pressure Visibility Wind Dir Wind Speed Gust Speed Precip Events Conditions
12:15 AM 44.8 °F 42.6 °F 92% 29.99 in 10.0 mi Calm Calm - N/A   Clear
12:35 AM 44.4 °F 42.4 °F 93% 29.99 in 10.0 mi Calm Calm - N/A   Clear
12:55 AM 43.9 °F 42.4 °F 95% 29.99 in 10.0 mi Calm Calm - N/A   Clear
1:15 AM 42.6 °F 41.4 °F 95% 29.99 in 7.0 mi Calm Calm - N/A   Clear
1:35 AM 42.4 °F 41.4 °F 96% 29.99 in 7.0 mi Calm Calm - N/A   Clear
1:55 AM 41.9 °F 41.0 °F 97% 29.99 in 7.0 mi Calm Calm - N/A   Clear
2:15 AM 41.7 °F 40.8 °F 97% 29.99 in 4.0 mi Calm Calm - N/A   Clear
2:35 AM 41.4 °F 40.6 °F 97% 29.99 in 7.0 mi Calm Calm - N/A   Clear
2:55 AM 41.0 °F 40.3 °F 97% 29.99 in 7.0 mi Calm Calm - N/A   Clear
3:15 AM 40.3 °F 39.4 °F 97% 29.99 in 1.0 mi Calm Calm - N/A   Mist
3:35 AM 39.9 °F 39.4 °F 98% 29.99 in 5.0 mi Calm Calm - N/A   Clear
3:55 AM 39.6 °F 39.0 °F 98% 29.99 in 1.2 mi Calm Calm - N/A   Mist
4:15 AM 40.1 °F 39.4 °F 97% 29.99 in 10.0 mi Calm Calm - N/A   Clear
4:35 AM 39.2 °F 38.7 °F 98% 29.99 in 0.8 mi Calm Calm - N/A   Mist
5:15 AM 38.5 °F 38.3 °F 99% 29.99 in 1.5 mi Calm Calm - N/A   Mist
5:35 AM 38.1 °F 37.6 °F 98% 30.00 in 4.0 mi Calm Calm - N/A   Clear
5:55 AM 38.3 °F 37.8 °F 98% 30.01 in 2.0 mi Calm Calm - N/A   Clear
6:15 AM 39.7 °F 39.4 °F 99% 30.01 in 10.0 mi Calm Calm - N/A   Clear
6:35 AM 41.7 °F 41.4 °F 99% 30.01 in 10.0 mi Calm Calm - N/A   Clear
6:55 AM 43.3 °F 42.8 °F 98% 30.01 in 10.0 mi Calm Calm - N/A   Clear
7:15 AM 44.8 °F 44.1 °F 97% 30.01 in 10.0 mi Calm Calm - N/A   Clear
7:35 AM 47.5 °F 44.6 °F 90% 30.00 in 10.0 mi Calm Calm - N/A   Clear
7:55 AM 49.6 °F 43.7 °F 80% 30.00 in 10.0 mi Calm Calm - N/A   Clear
8:15 AM 52.0 °F 44.2 °F 75% 30.00 in 10.0 mi Calm Calm - N/A   Clear
8:35 AM 53.6 °F 44.6 °F 72% 30.00 in 10.0 mi Calm Calm - N/A   Clear
8:55 AM 56.1 °F 45.0 °F 66% 30.00 in 10.0 mi Calm Calm - N/A   Clear
9:15 AM 59.4 °F 45.9 °F 61% 29.99 in 10.0 mi Calm Calm - N/A   Clear
9:35 AM 61.3 °F 45.9 °F 57% 29.98 in 10.0 mi Calm Calm - N/A   Clear
9:55 AM 63.9 °F 46.2 °F 53% 29.98 in 10.0 mi Calm Calm - N/A   Clear
11:35 AM 70.0 °F 41.0 °F 35% 29.94 in 10.0 mi NW 4.6 mph - N/A   Mostly Cloudy
11:55 AM 69.1 °F 40.6 °F 36% 29.93 in 10.0 mi Calm Calm - N/A   Mostly Cloudy
12:15 PM 70.7 °F 39.7 °F 32% 29.93 in 10.0 mi Calm Calm - N/A   Scattered Clouds
12:35 PM 71.8 °F 39.4 °F 31% 29.92 in 10.0 mi ESE 4.6 mph - N/A   Scattered Clouds
12:55 PM 71.8 °F 38.8 °F 30% 29.92 in 10.0 mi Calm Calm - N/A   Scattered Clouds
1:15 PM 72.1 °F 37.6 °F 28% 29.92 in 10.0 mi Calm Calm - N/A   Scattered Clouds
1:35 PM 71.8 °F 41.0 °F 33% 29.91 in 10.0 mi ENE 6.9 mph - N/A   Mostly Cloudy
2:15 PM 73.8 °F 40.1 °F 30% 29.91 in 10.0 mi South 5.8 mph - N/A   Overcast
2:35 PM 73.4 °F 41.0 °F 31% 29.91 in 10.0 mi SSE 5.8 mph - N/A   Mostly Cloudy
2:55 PM 72.7 °F 38.8 °F 29% 29.90 in 10.0 mi ESE 3.5 mph - N/A   Scattered Clouds
3:15 PM 72.0 °F 39.2 °F 30% 29.90 in 10.0 mi South 3.5 mph - N/A   Clear
3:35 PM 74.1 °F 39.6 °F 29% 29.89 in 10.0 mi SE 3.5 mph - N/A   Mostly Cloudy
3:55 PM 75.2 °F 38.8 °F 27% 29.89 in 10.0 mi SSE 6.9 mph - N/A   Mostly Cloudy
4:15 PM 73.6 °F 39.9 °F 30% 29.89 in 10.0 mi ESE 4.6 mph - N/A   Mostly Cloudy
4:35 PM 75.2 °F 39.6 °F 28% 29.88 in 10.0 mi SE 4.6 mph - N/A   Scattered Clouds
4:55 PM 75.2 °F 38.5 °F 27% 29.88 in 10.0 mi East 8.1 mph - N/A   Scattered Clouds
5:15 PM 74.8 °F 39.2 °F 28% 29.88 in 10.0 mi ESE 4.6 mph - N/A   Scattered Clouds
5:35 PM 73.2 °F 36.9 °F 27% 29.88 in 10.0 mi ESE 4.6 mph - N/A   Clear
5:55 PM 72.3 °F 39.4 °F 30% 29.88 in 10.0 mi Calm Calm - N/A   Scattered Clouds
6:15 PM 71.8 °F 40.3 °F 32% 29.88 in 10.0 mi ESE 4.6 mph - N/A   Mostly Cloudy
6:35 PM 70.9 °F 41.7 °F 35% 29.88 in 10.0 mi Calm Calm - N/A   Mostly Cloudy
6:55 PM 70.0 °F 43.2 °F 38% 29.89 in 10.0 mi SE 3.5 mph - N/A   Overcast
7:15 PM 68.7 °F 48.0 °F 48% 29.90 in 10.0 mi East 8.1 mph - N/A   Overcast
7:35 PM 67.6 °F 49.5 °F 52% 29.91 in 10.0 mi ESE 4.6 mph - N/A   Overcast
7:55 PM 66.7 °F 50.4 °F 56% 29.92 in 10.0 mi East 4.6 mph - N/A   Overcast
8:15 PM 65.7 °F 50.5 °F 58% 29.93 in 10.0 mi East 6.9 mph - N/A   Overcast
8:35 PM 64.0 °F 50.2 °F 61% 29.93 in 10.0 mi East 6.9 mph - N/A   Overcast
8:55 PM 63.1 °F 50.0 °F 62% 29.94 in 10.0 mi ESE 6.9 mph - N/A   Overcast
9:15 PM 62.6 °F 50.0 °F 63% 29.94 in 10.0 mi East 8.1 mph - N/A   Overcast
9:35 PM 61.7 °F 49.6 °F 65% 29.95 in 10.0 mi East 8.1 mph - N/A   Overcast
9:55 PM 61.0 °F 49.6 °F 66% 29.95 in 10.0 mi East 4.6 mph - N/A   Overcast
10:15 PM 60.4 °F 49.5 °F 67% 29.95 in 10.0 mi Calm Calm - N/A   Mostly Cloudy
10:35 PM 59.9 °F 49.3 °F 68% 29.95 in 10.0 mi East 4.6 mph - N/A   Scattered Clouds
10:55 PM 59.0 °F 49.1 °F 70% 29.94 in 10.0 mi East 3.5 mph - N/A   Scattered Clouds
11:15 PM 58.3 °F 48.9 °F 71% 29.94 in 10.0 mi East 5.8 mph - N/A   Mostly Cloudy
11:35 PM 58.1 °F 48.7 °F 71% 29.95 in 10.0 mi East 6.9 mph - N/A   Overcast
11:55 PM 57.9 °F 48.2 °F 70% 29.96 in 10.0 mi East 5.8 mph - N/A   Overcast